This demonstration page uses our WeatherBlox Daily Observations layout. Learn more.

Left ArrowRight Arrow

Hourly Observations for November 27, 2018

Temp ( °F °C ) Dew Point ( °F °C ) Humidity (%) Winds ( mph kmh ) Pressure ( in mb ) Visibility ( mi km ) Precip ( " mm )
12:15 am 00:15 Clear 23 -5.2 21 -6.3 92 92 W 5 7 30.27 1025 7 11 N/A
12:35 am 00:35 Clear 22 -5.3 21 -6.3 93 93 WNW 6 9 30.27 1025 7 11 N/A
12:55 am 00:55 Clear 20 -6.5 18 -7.7 91 91 NNW 6 9 30.27 1025 7 11 N/A
1:15 am 01:15 Clear 19 -7 17 -8.2 91 91 NW 5 7 30.27 1025 7 11 N/A
1:35 am 01:35 Clear 19 -7.2 17 -8.4 91 91 N N/A 30.30 1026 10 16 N/A
1:55 am 01:55 Clear 20 -6.4 19 -7.5 92 92 N N/A 30.27 1025 7 11 N/A
2:15 am 02:15 Clear with Mist and Fog 21 -6.2 19 -7.4 91 91 N N/A 30.27 1025 5 8 N/A
2:35 am 02:35 Clear with Mist and Fog 19 -7.1 17 -8.5 90 90 N N/A 30.27 1025 4 6 N/A
2:55 am 02:55 Mostly Cloudy with Mist and Fog 19 -7.1 17 -8.4 91 91 N N/A 30.27 1025 5 8 N/A
3:15 am 03:15 Cloudy 19 -7.1 17 -8.3 91 91 N N/A 30.27 1025 10 16 N/A
3:35 am 03:35 Cloudy 20 -6.6 18 -7.8 91 91 N N/A 30.27 1025 10 16 N/A
3:55 am 03:55 Cloudy 21 -6 19 -7.1 92 92 N N/A 30.27 1025 7 11 N/A
4:15 am 04:15 Cloudy 23 -5.2 20 -6.4 91 91 N N/A 30.27 1025 7 11 N/A
4:35 am 04:35 Cloudy 23 -4.8 21 -5.9 92 92 N N/A 30.27 1025 7 11 N/A
4:55 am 04:55 Cloudy with Mist and Fog 24 -4.4 22 -5.4 93 93 E 3 6 30.27 1025 5 8 N/A
5:15 am 05:15 Cloudy 25 -4 23 -5 93 93 ESE 5 7 30.24 1024 7 11 N/A
5:35 am 05:35 Cloudy 25 -3.9 23 -4.9 93 93 ESE 6 9 30.24 1024 7 11 N/A
5:55 am 05:55 Cloudy 26 -3.6 24 -4.6 93 93 ESE 6 9 30.24 1024 10 16 N/A
6:15 am 06:15 Cloudy 26 -3.4 24 -4.4 93 93 SE 7 11 30.24 1024 7 11 N/A
6:35 am 06:35 Cloudy 26 -3.3 24 -4.3 93 93 ESE 5 7 30.24 1024 7 11 N/A
6:55 am 06:55 Cloudy 26 -3.3 24 -4.3 93 93 SE 7 11 30.24 1024 7 11 N/A
7:15 am 07:15 Cloudy 26 -3.3 24 -4.3 93 93 SE 7 11 30.24 1024 7 11 N/A
7:35 am 07:35 Cloudy 26 -3.3 24 -4.2 94 94 SE 6 9 30.24 1024 7 11 N/A
7:55 am 07:55 Cloudy with Mist and Fog 26 -3.1 25 -4.1 93 93 SE 7 11 30.24 1024 5 8 N/A
8:15 am 08:15 Cloudy with Mist and Fog 27 -3 25 -4 93 93 SE 6 9 30.24 1024 5 8 N/A
8:35 am 08:35 Cloudy 27 -3 25 -3.9 94 94 SE 7 11 30.24 1024 7 11 N/A
8:55 am 08:55 Cloudy with Mist and Fog 27 -3 25 -4 93 93 SE 7 11 30.24 1024 5 8 N/A
9:15 am 09:15 Cloudy with Mist and Fog 27 -2.8 25 -3.8 93 93 SE 6 9 30.24 1024 5 8 N/A
9:35 am 09:35 Cloudy with Mist and Fog 28 -2.5 26 -3.5 93 93 S 9 15 30.24 1024 5 8 N/A
9:55 am 09:55 Cloudy with Mist and Fog 27 -2.6 25 -3.8 92 92 SSE 9 15 30.21 1023 5 8 N/A
10:15 am 10:15 Cloudy with Mist and Fog 28 -2.5 26 -3.6 92 92 SSE 9 15 30.21 1023 5 8 N/A
10:35 am 10:35 Cloudy with Mist and Fog 28 -2.3 26 -3.6 91 91 SSE 10 17 30.21 1023 5 8 N/A
10:55 am 10:55 Cloudy with Mist and Fog 28 -2.2 26 -3.5 91 91 SSE 10 17 30.21 1023 5 8 N/A
11:15 am 11:15 Cloudy with Mist and Fog 29 -1.8 27 -2.9 92 92 S 10 17 30.21 1023 5 8 N/A
11:35 am 11:35 Cloudy with Mist and Fog 29 -1.6 27 -2.7 92 92 S 12 19 30.18 1022 5 8 N/A
11:55 am 11:55 Cloudy with Mist and Fog 29 -1.5 27 -2.6 92 92 SSW 12 19 30.15 1021 5 8 N/A
12:15 pm 12:15 Cloudy 29 -1.5 27 -2.9 90 90 S 12 19 30.15 1021 7 11 N/A
12:35 pm 12:35 Cloudy with Mist and Fog 29 -1.6 27 -3 90 90 SSW 12 19 30.15 1021 5 8 N/A
12:55 pm 12:55 Cloudy 29 -1.5 27 -2.9 90 90 S 12 19 30.15 1021 7 11 N/A
1:15 pm 13:15 Cloudy 29 -1.6 26 -3.2 89 89 SSW 14 22 30.15 1021 7 11 N/A
1:35 pm 13:35 Cloudy 29 -1.6 26 -3.1 90 90 S 14 22 30.12 1020 10 16 N/A
1:55 pm 13:55 Cloudy 29 -1.7 26 -3.2 90 90 S 13 20 30.12 1020 7 11 N/A
2:15 pm 14:15 Cloudy 29 -1.7 26 -3.2 90 90 S 13 20 30.12 1020 7 11 N/A
2:35 pm 14:35 Cloudy 29 -1.9 26 -3.3 90 90 S 12 19 30.09 1019 7 11 N/A
2:55 pm 14:55 Cloudy with Mist and Fog 29 -1.9 26 -3.2 91 91 S 13 20 30.09 1019 5 8 N/A
3:15 pm 15:15 Cloudy with Mist and Fog 29 -1.7 27 -2.9 92 92 S 14 22 30.09 1019 5 8 N/A
3:35 pm 15:35 Cloudy 29 -1.7 27 -3 91 91 SSW 14 22 30.09 1019 7 11 N/A
3:55 pm 15:55 Cloudy with Mist and Fog 29 -1.7 27 -3 91 91 S 10 17 30.06 1018 5 8 N/A
4:15 pm 16:15 Cloudy with Mist and Fog 29 -1.8 27 -3 92 92 SSW 13 20 30.06 1018 4 6 N/A
4:35 pm 16:35 Cloudy with Mist and Fog 29 -1.8 27 -2.8 93 93 S 13 20 30.06 1018 5 8 N/A
4:55 pm 16:55 Cloudy with Mist and Fog 29 -1.8 27 -2.8 93 93 S 12 19 30.06 1018 4 6 N/A
5:15 pm 17:15 Cloudy with Mist and Fog 29 -1.7 27 -2.7 93 93 S 10 17 30.06 1018 4 6 N/A
5:35 pm 17:35 Cloudy with Mist and Fog 29 -1.7 27 -2.6 94 94 S 12 19 30.03 1017 4 6 N/A
5:55 pm 17:55 Cloudy with Mist and Fog 29 -1.7 27 -2.6 94 94 SSW 12 19 30.03 1017 4 6 N/A
6:15 pm 18:15 Cloudy with Mist and Fog 29 -1.6 28 -2.5 94 94 S 10 17 30.03 1017 5 8 N/A
6:35 pm 18:35 Cloudy with Mist and Fog 29 -1.5 28 -2.5 93 93 S 9 15 30.03 1017 4 6 N/A
6:55 pm 18:55 Cloudy with Mist and Fog 29 -1.5 28 -2.3 94 94 S 9 15 30.03 1017 3 4 N/A
7:15 pm 19:15 Cloudy with Mist and Fog 30 -1.3 28 -2 95 95 S 10 17 30.03 1017 2 3 N/A
7:35 pm 19:35 Cloudy with Mist and Fog 30 -1.2 29 -1.9 95 95 S 9 15 30.00 1016 2 3 N/A
7:55 pm 19:55 Cloudy with Mist and Fog 30 -1.1 29 -1.8 95 95 S 9 15 30.00 1016 2 3 N/A
8:15 pm 20:15 Cloudy with Mist and Fog 30 -1 29 -1.7 95 95 S 8 13 30.00 1016 3 5 N/A
8:35 pm 20:35 Cloudy with Mist and Fog 30 -1 29 -1.7 95 95 S 10 17 30.00 1016 3 5 N/A
8:55 pm 20:55 Cloudy with Mist and Fog 30 -1.1 29 -1.8 95 95 S 9 15 30.00 1016 3 5 N/A
9:15 pm 21:15 Cloudy with Mist and Fog 30 -1.1 29 -1.8 95 95 S 10 17 30.00 1016 3 5 N/A
9:35 pm 21:35 Cloudy with Mist and Fog 30 -1.2 28 -2 94 94 S 12 19 30.00 1016 2 3 N/A
9:55 pm 21:55 Cloudy with Mist and Fog 29 -1.4 28 -2.1 95 95 S 10 17 29.97 1015 2 3 N/A
10:15 pm 22:15 Cloudy with Mist and Fog 30 -1.3 28 -2 95 95 S 14 22 29.97 1015 2 2 N/A
10:35 pm 22:35 Cloudy with Mist and Fog 30 -1.3 28 -2 95 95 S 13 20 29.94 1014 1 2 N/A
10:55 pm 22:55 Cloudy with Mist and Fog 29 -1.4 28 -2 96 96 S 13 20 29.94 1014 1 2 N/A
11:15 pm 23:15 Cloudy with Mist and Fog 30 -1.3 28 -2 95 95 S 10 17 29.94 1014 2 3 N/A
11:35 pm 23:35 Cloudy with Mist and Fog 29 -1.4 28 -2 96 96 S 13 20 29.94 1014 3 4 N/A
11:55 pm 23:55 Cloudy with Mist and Fog 29 -1.5 28 -2.1 96 96 SSE 10 17 29.94 1014 3 5 N/A

Powered by AerisWeather